GFSGL_500_spd_159.txt.gz
Wind_Speed
36 37 38 39 40 40 42 45 46 45 43 42 43 42 47 49 48 48 50 47 46 45 47 53 52 49 53 57 52 50 50 45 47 46 46 45 45 44 43 44 46 46 46
33 40 42 41 41 43 45 45 43 42 43 42 41 43 43 45 46 46 48 47 45 48 52 58 52 51 56 55 51 49 47 47 49 49 47 42 40 41 44 45 46 47 45
39 43 41 40 40 43 43 42 41 43 42 39 38 42 46 47 43 42 43 44 47 51 54 53 51 53 56 52 49 48 48 49 49 50 40 39 43 45 48 50 51 51 51
39 41 38 38 38 39 40 41 43 40 37 34 39 41 42 43 45 45 46 48 50 49 50 50 50 54 54 48 48 48 48 49 49 44 41 43 47 49 46 43 43 43 46
29 27 30 34 37 37 39 39 37 34 34 39 41 41 47 47 49 48 49 49 49 48 49 51 52 55 49 47 48 49 49 49 47 43 45 48 52 50 47 41 41 42 43
27 24 34 33 34 35 36 34 34 34 38 40 43 47 45 45 42 43 45 46 46 48 50 52 53 52 46 47 50 50 50 49 42 46 48 51 51 44 38 37 36 35 31
24 30 27 29 35 35 32 33 35 37 40 42 41 42 41 42 42 42 42 43 45 47 50 52 53 47 45 48 49 48 50 47 45 46 48 52 46 36 38 36 35 33 32
30 27 27 26 27 30 32 34 33 39 39 40 41 41 39 39 39 41 42 44 47 50 51 52 50 44 45 48 46 47 46 45 45 47 49 50 37 34 35 35 33 32 31
29 24 25 27 27 27 28 35 36 37 39 40 39 39 39 40 41 43 45 48 50 52 52 52 46 44 45 47 47 44 40 41 44 46 49 44 35 36 35 33 35 32 30
28 27 27 26 28 31 34 36 37 38 38 38 38 38 38 40 42 44 46 48 53 55 55 52 44 44 45 46 46 40 37 39 42 44 46 39 35 35 37 37 40 36 32
25 24 25 30 31 31 33 36 35 36 36 35 35 35 36 37 40 43 46 49 51 52 50 48 44 43 44 44 42 36 39 40 41 44 45 37 37 36 38 36 37 34 30
20 24 24 26 29 32 34 34 33 32 30 32 35 36 38 40 42 44 47 47 48 49 47 41 41 42 42 42 36 36 38 40 40 44 43 38 40 39 40 39 35 31 27
20 22 23 25 28 29 30 30 30 30 33 36 38 40 41 41 44 46 47 47 47 47 42 39 39 40 40 34 34 36 38 39 38 40 38 39 42 41 38 33 33 29 24
20 22 23 26 27 28 29 30 32 35 38 39 40 41 42 45 45 47 49 47 46 45 40 37 39 36 32 30 32 35 37 34 37 34 39 42 40 34 31 32 26 21 18
21 23 26 26 28 31 33 35 37 39 39 40 41 42 45 47 47 48 47 46 43 41 35 40 33 31 27 29 31 33 31 33 29 35 42 37 35 34 29 26 20 17 13
24 27 27 29 32 35 37 39 40 41 42 43 44 45 45 47 48 48 46 43 38 35 34 32 29 25 25 24 27 27 27 27 28 35 39 32 32 31 29 24 21 16 11
28 30 31 33 35 37 38 40 41 41 43 45 49 49 48 51 49 47 43 38 33 32 29 26 24 22 21 22 27 28 22 22 27 31 37 32 32 31 26 23 20 15 11
29 31 33 34 36 38 39 40 42 45 48 50 50 50 49 48 44 40 37 31 29 27 22 23 20 19 18 22 26 23 20 20 24 26 34 38 28 29 27 24 17 12 11
31 33 35 37 37 38 41 43 46 49 51 50 47 45 45 43 40 35 27 24 25 19 24 19 18 16 16 20 25 22 16 18 19 24 31 36 27 26 25 22 17 11 12
33 35 35 36 39 41 43 46 49 50 47 44 44 42 40 36 33 26 22 24 12 20 18 17 14 13 13 15 22 20 13 15 18 21 31 32 28 24 23 21 16 11 13
33 34 35 39 42 44 47 48 48 43 42 42 40 36 32 29 25 21 23 10 13 15 14 14 10 10 11 13 19 18 12 14 18 19 25 30 30 19 21 21 18 15 13
33 36 38 41 42 44 46 45 40 38 38 38 35 29 26 23 22 20 14 7 12 12 12 10 7 8 9 11 16 17 12 13 17 16 20 25 23 22 18 18 20 21 18
34 37 40 41 41 40 38 35 34 33 33 33 28 24 22 20 19 13 6 9 10 10 10 10 6 6 9 9 13 15 12 11 15 14 18 22 19 19 19 20 27 27 22
37 39 38 37 34 32 31 31 31 31 29 28 22 19 18 17 11 7 5 9 9 9 9 9 8 6 7 7 9 11 11 9 12 15 15 18 15 16 22 20 24 23 19
39 36 34 32 30 28 28 28 28 27 26 24 20 18 14 15 11 9 7 9 9 9 8 8 8 8 7 6 6 9 9 8 11 14 14 16 14 12 11 15 19 22 19
33 32 29 27 26 25 24 24 24 21 21 22 20 17 19 13 12 8 8 9 9 8 7 7 8 8 8 6 4 4 7 6 8 11 10 11 14 12 12 15 12 18 18

GFSGL_500_spd_162.txt.gz
Wind_Speed
25 24 31 34 33 34 35 36 39 41 40 39 39 39 41 43 44 46 48 50 49 45 45 41 44 47 48 50 51 49 51 49 45 43 44 46 46 48 45 38 37 39 42
21 26 28 31 32 32 36 38 41 39 40 40 40 41 41 41 43 45 45 48 49 47 47 49 49 49 47 48 50 50 52 47 44 44 46 46 47 46 41 41 44 47 48
26 31 30 32 36 35 35 39 39 39 39 39 41 43 39 39 44 46 49 51 48 46 46 47 46 46 48 49 49 51 50 45 45 47 47 47 48 42 42 45 47 51 51
29 30 30 32 35 35 37 39 38 35 36 39 40 37 37 42 44 45 45 43 43 42 43 45 46 47 47 48 51 51 47 44 46 47 47 48 43 43 45 46 51 48 40
30 27 31 38 38 40 34 30 31 34 36 38 36 37 40 40 43 43 41 41 41 42 43 44 45 48 49 50 51 49 46 45 47 45 46 42 43 45 46 49 45 36 38
27 21 27 28 36 28 24 28 32 35 35 37 39 39 39 41 41 40 39 41 42 43 45 47 49 52 53 53 54 47 45 47 44 45 41 38 42 46 47 47 37 36 36
32 27 35 27 23 25 28 31 32 32 32 34 33 37 39 41 40 40 41 40 42 44 47 49 51 54 57 55 51 48 47 46 46 45 40 42 45 47 48 40 36 35 36
32 33 36 26 29 24 29 31 27 26 29 31 33 36 38 40 40 40 39 42 44 46 48 50 51 53 52 50 44 45 44 45 42 41 43 47 47 46 46 37 35 35 37
38 38 31 22 25 27 26 27 28 30 33 34 35 37 39 36 35 39 41 45 47 51 52 53 51 52 51 49 43 42 43 39 38 40 43 46 45 47 42 37 38 40 38
41 33 28 27 28 30 28 27 30 33 33 34 36 34 31 36 38 41 43 46 49 51 53 53 52 50 50 47 41 39 39 33 34 38 42 44 44 42 43 43 41 38 39
34 27 27 24 24 26 28 31 31 32 33 34 31 33 37 41 42 43 46 48 52 54 53 52 51 49 49 43 42 39 36 34 37 40 40 41 40 44 43 42 39 39 35
23 23 20 18 20 24 25 27 29 32 32 32 34 38 42 44 45 47 47 51 52 54 53 52 50 49 45 41 37 36 34 35 38 38 38 38 44 39 39 37 33 33 32
16 17 17 20 22 24 26 28 31 33 33 35 39 42 44 47 49 50 51 52 51 50 50 51 49 46 40 37 33 31 32 35 36 35 36 40 38 38 38 34 32 29 25
14 17 19 21 24 26 29 30 32 33 35 38 42 44 47 49 50 52 54 56 54 51 51 49 46 39 36 30 27 29 33 36 32 29 32 39 37 36 34 32 28 25 21
18 20 22 24 26 28 28 32 33 35 38 41 44 46 48 50 54 56 57 57 54 52 48 46 40 36 29 25 25 27 33 34 28 27 32 38 36 34 33 30 26 24 21
23 25 25 27 27 28 31 32 35 38 41 44 46 48 51 54 57 58 58 54 50 46 43 36 32 27 24 20 23 28 32 28 24 25 30 37 34 32 30 27 24 23 21
25 22 24 26 27 30 33 36 39 40 42 46 49 51 55 59 59 57 50 47 44 40 35 28 24 23 18 18 22 26 28 23 21 21 31 35 31 29 29 25 23 20 17
20 22 24 27 30 33 36 39 40 43 46 47 51 55 60 59 53 49 47 43 37 30 25 21 21 17 14 17 20 24 24 19 22 22 29 32 27 28 28 23 21 18 16
21 24 27 30 33 35 37 39 42 44 48 52 56 60 59 51 47 44 39 33 28 23 18 20 18 13 12 15 16 23 19 16 20 19 27 31 26 26 26 20 17 15 14
25 27 31 35 36 37 39 41 44 48 51 55 56 52 47 44 41 35 29 26 19 18 16 17 14 10 11 13 14 20 17 15 18 20 26 26 24 21 23 20 16 13 14
30 33 35 31 34 37 40 44 48 51 52 49 43 41 39 39 34 27 26 22 20 11 14 15 11 7 9 10 13 16 14 13 15 18 23 23 22 22 17 17 14 13 14
28 27 30 34 37 41 44 47 49 47 43 40 37 35 34 34 27 23 23 18 8 13 12 12 10 7 7 8 10 14 13 13 15 16 19 18 20 21 24 20 18 15 15
27 31 35 37 40 44 46 46 41 38 36 34 33 32 31 30 23 20 19 12 10 13 11 10 9 8 7 6 9 11 11 11 14 13 18 15 15 21 20 23 19 19 18
32 35 38 41 44 44 40 37 35 32 30 31 30 30 28 24 19 17 14 11 12 12 9 9 8 7 6 5 5 8 8 7 10 10 13 11 11 18 22 25 21 21 25
36 39 42 43 39 34 32 30 28 27 26 26 27 29 24 20 19 22 12 14 11 10 8 8 8 6 5 5 3 5 5 5 8 7 11 10 12 11 18 17 19 13 16
40 40 38 34 31 29 28 26 25 24 23 24 23 25 24 20 17 16 13 11 10 7 6 6 7 7 7 6 4 2 3 4 5 6 7 9 10 10 10 10 15 17 7

GFSGL_500_spd_165.txt.gz
Wind_Speed
25 21 24 38 28 31 22 26 30 32 35 34 35 39 40 40 41 43 45 46 47 49 50 51 50 47 47 49 48 49 49 48 46 47 45 42 41 43 43 41 42 45 41
22 16 16 19 30 28 18 26 32 34 35 35 39 39 38 39 41 44 44 43 45 47 46 46 44 43 45 47 48 49 49 49 47 46 43 42 42 43 43 43 44 43 41
27 27 26 24 29 26 23 30 35 36 39 39 40 37 37 41 41 41 40 41 44 43 41 42 43 44 44 46 49 51 52 53 52 49 44 43 44 44 45 43 40 40 42
29 29 29 24 28 28 25 31 35 38 39 36 34 36 40 37 37 39 39 43 42 41 41 41 42 43 44 47 51 53 53 53 52 46 42 44 44 45 43 39 41 44 46
25 24 23 23 24 24 25 27 28 24 26 33 35 35 33 36 35 36 40 41 40 38 37 38 42 45 48 51 53 55 56 55 52 45 42 44 45 41 38 40 43 44 46
29 26 24 28 20 21 23 23 18 24 36 33 29 30 31 33 34 36 37 37 34 36 38 42 43 47 50 54 57 57 56 56 54 45 42 45 41 37 40 42 42 43 43
30 23 21 23 29 30 29 25 28 31 31 29 30 30 33 35 34 36 35 33 35 40 43 46 49 52 54 57 57 57 55 55 51 44 44 42 38 40 41 41 42 41 40
21 24 22 28 30 28 30 30 28 29 28 29 31 34 35 35 34 33 34 38 40 42 43 47 51 54 56 55 58 56 55 50 45 48 44 40 42 44 42 40 40 42 41
26 24 24 30 30 32 34 34 30 30 28 29 32 34 34 33 32 35 38 40 42 45 48 50 53 55 56 54 56 56 51 44 48 45 41 42 43 41 39 41 46 42 41
27 28 32 33 34 36 33 31 32 31 30 32 33 33 34 32 34 38 40 42 46 49 51 53 55 58 56 56 57 53 45 44 41 37 39 41 39 38 42 44 43 43 41
28 31 33 29 26 29 28 27 28 27 26 30 32 33 33 34 37 40 41 45 49 52 55 57 58 58 57 57 56 52 43 39 35 34 36 35 34 39 45 43 41 39 38
27 29 23 22 24 26 24 24 24 26 28 30 31 33 35 38 40 43 45 49 51 54 57 60 62 64 61 55 53 44 39 33 33 36 37 32 36 42 45 41 40 39 33
16 21 22 21 23 21 22 23 26 28 29 31 33 36 38 40 43 46 50 52 53 57 61 65 66 64 56 50 44 36 32 30 33 37 31 32 37 44 43 42 39 35 29
17 17 17 18 19 20 22 24 27 29 31 33 35 36 40 43 45 49 52 56 59 63 67 64 55 50 46 42 34 31 28 29 34 32 29 31 38 41 39 38 34 31 28
19 18 18 19 21 23 24 25 28 30 32 34 36 40 43 45 48 51 55 58 64 66 62 49 49 46 36 30 28 24 26 29 34 28 29 33 38 36 36 33 30 28 27
19 20 21 23 25 24 25 27 29 30 33 36 39 42 43 47 51 54 58 64 66 61 50 45 41 34 26 24 24 23 23 29 27 25 28 32 34 32 33 29 28 26 23
23 25 27 27 27 24 24 27 30 34 37 38 41 43 48 51 54 59 64 64 54 45 40 36 28 25 22 21 19 19 22 26 20 24 24 30 31 30 32 26 25 24 22
24 25 24 22 22 24 28 32 36 38 37 38 43 47 50 55 60 61 55 48 41 37 33 23 22 20 18 16 16 17 23 20 20 20 27 29 29 27 28 23 21 20 19
20 20 22 24 25 29 33 35 34 35 38 43 45 49 54 59 55 46 43 39 34 31 21 22 18 18 15 13 13 17 19 15 17 19 26 27 27 26 25 23 20 18 17
21 23 26 29 32 32 30 32 35 39 43 47 51 55 54 46 42 40 39 33 28 23 20 15 18 16 11 11 12 16 15 14 16 19 24 23 26 22 22 20 18 16 17
24 27 29 28 27 29 33 36 39 42 46 51 53 46 39 38 37 35 35 28 26 19 11 15 16 14 9 9 11 14 10 13 16 20 17 22 22 25 22 19 17 17 19
27 24 24 27 30 33 36 39 42 46 48 45 40 36 34 32 33 31 28 22 18 14 13 15 15 13 9 9 9 11 8 12 15 18 12 19 21 27 21 17 17 18 20
24 25 28 31 34 37 40 44 46 43 38 34 32 31 31 30 28 28 23 17 18 12 14 14 12 12 8 6 7 10 7 10 12 13 10 15 22 28 23 18 20 20 19
27 29 32 35 38 41 44 42 37 31 30 28 28 28 28 27 27 25 21 14 17 10 14 12 10 10 9 6 5 7 7 8 8 9 9 10 12 16 20 15 17 17 18
31 34 37 39 42 41 36 32 29 28 27 26 26 25 24 25 25 24 20 16 13 11 8 9 8 7 8 6 5 4 4 4 5 8 5 9 8 11 13 12 8 10 12
35 37 38 38 34 32 30 28 26 26 25 24 24 23 22 22 23 22 21 19 15 14 11 8 5 7 6 6 6 6 4 2 2 3 5 4 7 9 10 14 15 5 5

GFSGL_500_spd_168.txt.gz
Wind_Speed
21 21 22 27 28 23 24 23 36 27 10 24 31 29 31 34 35 36 35 40 44 40 38 40 44 45 44 41 40 43 43 46 49 52 53 55 54 55 49 42 38 39 37
31 32 25 22 25 25 26 31 40 33 17 29 31 32 33 34 34 34 40 42 37 37 39 42 44 41 36 39 41 46 50 49 50 48 54 54 53 51 45 41 40 41 41
29 34 23 25 26 28 26 38 33 18 25 30 32 34 30 30 35 38 42 36 35 35 40 41 38 34 38 43 44 47 49 50 54 56 57 55 53 48 42 44 44 41 34
32 29 32 32 32 32 34 27 23 27 28 29 32 27 26 34 39 38 34 33 35 38 38 32 33 38 41 44 47 49 50 53 55 57 57 54 50 43 40 43 38 36 36
34 34 32 32 28 16 16 23 26 25 24 23 25 28 35 37 33 32 31 35 38 34 31 34 37 40 42 44 48 51 52 54 56 58 56 53 44 42 42 38 34 36 40
47 33 32 27 27 15 16 21 21 17 22 23 28 34 33 31 32 31 36 37 34 32 34 38 38 41 43 47 51 54 56 55 57 58 53 48 42 38 36 33 36 38 38
36 31 30 31 15 17 14 17 23 23 23 30 29 31 30 31 30 35 38 38 32 35 38 40 40 42 47 50 55 58 57 58 57 56 51 45 38 36 35 38 37 34 35
25 7 7 8 13 19 16 17 24 27 29 32 31 30 29 31 35 38 38 34 36 39 41 40 42 46 49 54 57 61 60 58 56 51 46 39 35 37 40 37 34 36 39
23 18 18 15 20 20 19 24 27 29 29 31 32 32 32 35 38 37 34 35 41 42 41 45 47 49 52 56 62 62 59 55 47 44 40 35 37 41 40 35 38 41 41
22 18 19 21 22 21 21 26 25 24 28 28 28 30 34 36 33 33 36 39 41 42 45 48 52 54 57 61 63 57 50 43 39 37 34 36 39 38 34 38 42 45 43
21 22 22 26 23 21 22 24 22 26 27 27 29 31 31 31 34 36 38 39 43 46 48 52 55 60 61 62 53 47 43 36 34 31 30 35 35 31 36 42 44 42 40
19 17 25 27 19 19 20 22 26 27 27 28 29 29 30 33 34 35 38 43 45 47 51 56 61 62 57 49 45 43 35 32 30 30 33 34 30 32 41 42 40 40 36
17 14 10 15 19 18 17 20 22 24 25 27 29 30 31 31 33 38 40 43 46 50 56 62 61 54 46 43 38 32 31 29 29 30 32 28 29 36 37 39 40 36 33
19 18 15 16 18 19 20 21 23 25 25 26 26 27 30 35 37 40 43 46 51 56 62 60 50 44 39 34 28 28 28 27 28 28 24 28 33 37 35 37 34 30 28
17 24 17 16 19 21 21 22 23 23 24 25 28 33 35 36 38 42 46 51 57 59 53 46 41 38 32 26 25 27 25 26 27 23 26 30 34 35 34 31 27 27 26
15 16 16 18 18 20 21 21 21 23 26 31 34 33 33 37 40 45 52 55 53 49 42 39 38 30 26 26 26 23 23 24 22 22 25 31 30 32 28 26 25 24 22
17 18 19 19 20 21 22 23 25 28 31 32 31 34 38 40 44 50 53 49 45 41 37 34 27 24 23 24 21 20 20 21 18 20 27 28 29 27 25 25 24 22 21
14 15 18 20 20 21 23 26 28 30 28 30 34 37 41 46 49 50 47 43 39 36 31 29 23 20 23 20 16 16 19 17 19 23 26 26 28 25 24 26 23 20 20
16 18 20 20 21 23 26 28 28 27 31 34 37 41 45 47 46 41 39 36 35 30 27 20 18 20 19 13 13 15 15 15 17 20 22 27 27 25 25 25 23 21 21
19 20 21 22 24 25 24 25 28 32 35 38 41 44 45 43 39 38 36 33 33 26 21 15 17 18 15 11 12 14 13 16 17 17 23 25 25 24 24 22 23 23 24
19 21 24 24 22 23 26 29 33 35 37 40 41 40 36 32 31 31 32 31 28 22 17 14 15 16 13 10 9 12 11 14 15 15 20 22 24 25 22 21 21 21 21
22 22 20 22 24 27 30 33 35 36 39 37 34 31 30 29 28 28 29 28 26 19 14 13 14 13 12 8 7 11 9 11 13 13 13 22 26 23 23 23 22 21 21
21 22 23 25 28 31 33 35 37 37 35 31 28 27 27 26 27 27 26 24 23 18 11 11 11 11 9 7 7 9 7 8 10 8 7 15 18 17 17 18 19 19 19
23 25 27 29 32 34 35 36 33 31 29 27 26 25 23 23 23 23 24 22 20 16 10 10 8 9 8 7 5 5 6 6 7 7 5 10 14 14 15 14 13 15 15
26 28 30 32 34 35 34 32 30 28 26 26 26 26 24 22 20 19 20 20 20 16 13 11 6 6 8 8 8 4 5 3 3 6 4 5 9 10 17 13 7 11 12
28 31 34 35 34 33 31 30 28 27 26 24 24 24 23 22 19 18 18 18 17 17 16 14 15 11 9 5 8 7 5 3 1 2 4 4 4 7 10 14 16 9 6

GFSGL_500_spd_171.txt.gz
Wind_Speed
31 33 31 29 31 32 34 38 33 28 28 39 37 25 14 17 27 29 33 35 33 38 44 42 37 37 41 41 37 39 45 48 49 54 56 55 56 57 61 63 59 54 47
35 34 36 32 33 36 38 32 21 29 35 39 25 16 16 20 28 33 31 31 37 40 38 36 37 39 39 37 41 44 48 49 51 52 58 60 61 61 63 60 56 51 41
37 37 37 36 34 37 38 37 36 35 35 26 13 17 21 25 28 27 32 36 36 35 34 36 40 37 36 41 45 46 48 51 54 57 59 63 63 63 61 57 51 42 40
37 39 39 39 30 34 36 34 32 30 32 19 20 23 25 26 27 31 37 36 34 33 35 38 38 34 40 47 44 46 51 55 59 61 64 65 67 63 57 50 45 42 38
36 38 36 38 42 38 41 30 25 21 21 24 24 23 26 27 32 37 37 34 34 35 39 40 36 38 44 47 50 52 55 58 63 65 66 70 65 58 50 44 40 33 35
36 40 36 42 28 39 33 38 24 25 22 20 20 24 26 28 34 37 32 33 32 36 38 37 36 43 48 49 53 56 58 61 66 71 73 67 57 49 44 36 33 32 34
43 42 46 39 36 36 34 24 18 17 22 24 23 23 27 32 34 33 30 32 35 37 35 38 42 46 48 51 55 59 63 68 71 69 63 52 43 41 35 32 36 37 34
41 30 37 35 14 9 5 13 20 19 22 25 27 28 31 32 32 31 32 34 36 34 37 40 41 45 50 53 58 63 70 69 63 56 50 43 38 34 33 38 36 30 35
33 22 18 16 17 14 12 18 21 25 27 29 27 27 27 27 27 30 32 32 34 36 37 38 43 46 50 56 62 67 64 59 50 49 42 37 34 34 38 35 33 36 40
27 15 17 14 15 13 20 25 26 28 24 23 25 25 25 27 29 31 31 33 32 34 39 42 44 50 56 62 65 59 53 47 44 38 36 35 35 37 33 33 37 39 40
16 11 7 12 18 12 19 22 23 26 22 21 24 24 25 28 29 30 30 31 35 38 40 43 49 55 61 60 55 48 43 37 33 32 29 30 31 29 32 37 36 38 37
9 8 2 11 16 22 22 16 18 17 19 20 22 24 27 28 28 28 30 34 37 39 42 46 53 58 57 51 45 41 34 29 29 26 28 28 28 30 34 34 35 34 33
13 18 11 12 8 11 14 11 14 17 19 20 22 25 26 25 27 31 32 35 37 42 46 51 56 55 47 43 37 31 27 26 24 26 25 24 31 33 33 31 31 30 29
22 19 11 15 12 12 12 14 17 18 19 20 22 23 25 29 31 32 35 37 42 46 50 54 53 45 39 35 27 26 25 22 23 22 22 27 33 32 30 29 28 27 26
6 17 19 18 16 17 17 16 17 19 19 21 24 28 31 31 32 35 38 43 46 49 50 49 42 37 34 28 25 23 20 21 22 21 25 28 30 30 27 26 25 25 23
11 12 15 17 18 17 17 19 21 22 24 26 29 31 30 32 35 38 42 45 48 48 45 41 35 32 26 25 22 18 19 21 20 21 24 28 28 27 25 24 23 22 21
13 15 16 17 16 17 19 21 22 24 27 30 32 31 32 35 38 42 45 47 46 41 36 34 28 25 22 23 16 16 18 16 18 19 23 28 27 25 24 23 21 20 21
14 13 14 15 16 18 21 23 26 29 31 29 28 32 34 37 41 44 44 42 37 34 32 27 25 22 21 16 13 16 16 17 18 18 22 26 23 22 22 21 21 21 21
14 13 14 17 20 22 25 27 28 27 26 28 32 33 35 40 42 40 36 34 33 31 30 23 21 18 16 12 13 15 12 14 14 19 21 21 20 20 20 20 22 22 22
13 15 17 19 22 24 25 23 23 26 28 30 32 34 39 39 35 31 30 31 31 29 27 21 16 13 12 9 11 13 11 12 12 17 23 20 21 20 18 18 21 21 18
17 17 19 21 23 22 23 24 26 28 30 33 35 37 36 32 30 28 28 28 28 25 23 19 15 10 10 6 8 11 9 10 9 11 18 19 21 21 19 21 21 21 20
19 20 22 24 23 24 25 27 28 30 32 33 32 31 30 28 27 27 26 25 24 21 18 16 14 10 9 5 6 9 8 7 8 8 12 13 14 19 18 16 18 19 20
24 25 25 26 26 26 27 28 31 32 31 30 29 27 25 26 26 25 24 23 21 20 17 15 13 10 7 7 4 5 7 4 8 4 7 12 15 15 14 13 14 14 15
26 27 28 28 27 26 29 32 33 32 30 29 26 25 25 24 24 23 21 20 20 19 18 15 14 9 7 7 6 5 5 3 4 5 4 6 10 15 11 10 13 14 12
29 27 24 24 27 30 33 32 32 31 31 28 26 26 24 23 22 21 20 19 18 18 17 15 14 14 10 8 6 7 6 2 2 3 4 3 6 10 14 15 9 10 12
23 24 27 30 32 33 33 32 32 30 30 29 27 26 24 22 21 19 18 18 17 16 15 15 14 14 15 16 12 7 6 7 5 4 3 2 4 6 8 12 15 14 10

GFSGL_500_spd_174.txt.gz
Wind_Speed
27 29 28 31 34 38 40 40 42 46 48 38 37 43 49 52 34 24 23 23 27 33 32 34 37 35 35 38 42 43 41 44 47 48 52 57 60 68 67 69 70 70 67
29 28 31 34 37 39 44 44 46 33 46 38 49 54 44 22 18 20 25 28 32 32 33 37 35 34 37 40 43 41 41 47 49 52 58 63 68 68 70 74 74 73 67
28 32 36 38 39 43 46 46 51 44 51 55 48 31 26 17 17 21 26 31 29 35 36 35 35 37 40 43 41 42 47 50 54 57 62 67 69 71 75 75 74 64 54
33 37 40 40 43 44 40 48 44 51 38 25 23 22 17 19 21 26 29 28 34 36 38 38 37 39 43 42 41 44 48 51 56 61 65 69 73 76 73 66 58 50 44
39 38 39 42 44 47 42 48 45 24 25 21 21 23 21 21 24 26 27 34 37 38 38 39 38 41 40 41 44 45 51 56 57 64 70 74 76 70 59 57 47 41 36
38 40 40 42 46 50 44 41 45 31 28 23 28 24 22 23 25 29 31 35 39 39 37 38 38 38 41 40 45 49 52 57 62 68 74 75 68 56 55 45 40 34 32
42 42 43 45 48 53 43 48 31 29 32 27 21 24 28 26 31 34 34 36 38 35 36 36 36 37 39 45 49 51 56 60 66 72 72 66 55 50 41 36 35 37 37
35 40 42 45 48 43 44 33 30 24 19 16 23 27 29 31 35 36 33 28 29 31 32 34 35 38 43 45 50 56 58 65 71 68 62 50 43 37 35 35 36 33 34
36 40 43 39 38 29 21 13 8 12 19 24 27 29 29 29 28 26 26 28 31 32 33 33 37 43 43 47 53 58 63 66 63 56 44 39 35 34 37 35 35 38 40
32 26 19 22 26 22 18 15 20 21 25 26 28 28 23 22 23 24 27 29 31 32 34 36 41 42 47 52 56 60 62 59 51 40 36 34 35 35 36 39 39 41 41
28 20 20 16 22 20 20 16 16 21 21 20 17 17 19 21 24 27 28 29 31 35 38 38 41 46 51 53 56 57 53 44 35 34 32 32 31 32 37 40 39 36 35
27 19 22 22 24 25 22 21 19 19 20 18 16 18 20 22 24 26 28 32 35 37 38 41 46 48 50 54 53 48 39 33 32 29 30 28 30 35 38 38 35 33 31
23 19 19 21 14 15 13 14 14 15 16 17 19 19 21 22 25 27 30 32 35 37 40 44 48 50 52 49 45 37 32 30 27 27 25 28 31 34 33 30 31 28 27
15 25 24 24 17 16 11 14 14 16 17 20 20 20 22 25 28 30 31 33 35 40 44 48 50 48 45 39 35 31 30 25 24 21 23 28 32 28 28 28 25 25 23
9 8 14 19 15 12 13 15 16 16 19 20 21 22 24 27 28 28 31 35 40 44 49 50 47 44 38 35 32 30 24 22 20 20 22 29 26 26 26 24 23 22 21
8 9 10 13 14 15 16 16 17 18 19 19 22 24 26 26 29 32 35 39 43 48 50 46 44 40 33 30 28 24 20 18 18 19 22 25 22 23 23 23 23 22 22
11 12 11 12 12 12 13 14 15 18 21 25 27 27 27 29 33 36 38 43 47 49 45 42 39 36 29 26 23 18 18 15 15 18 23 21 19 20 21 23 25 24 23
12 12 12 12 13 14 15 18 21 24 27 29 29 29 30 31 35 38 41 46 48 45 42 38 34 31 26 22 16 15 14 12 12 19 20 18 17 17 19 21 20 23 24
13 14 15 16 17 17 19 22 24 26 27 27 29 29 31 33 36 40 43 45 43 40 37 35 32 27 21 17 12 14 10 10 9 18 17 18 19 21 22 22 19 17 19
13 15 17 18 18 19 21 24 25 26 28 28 29 30 32 35 37 41 44 39 38 35 35 31 29 22 18 15 11 12 8 7 6 12 15 17 20 17 18 22 26 21 16
18 19 20 20 21 22 25 26 27 29 29 30 30 31 33 36 37 38 35 32 33 33 31 29 26 21 16 14 11 10 7 4 3 8 11 15 17 17 14 15 17 19 22
19 20 20 22 25 28 29 30 31 31 30 30 31 33 35 35 35 31 29 29 28 28 28 27 24 19 15 12 12 9 6 3 5 5 7 14 17 14 11 13 14 15 16
20 22 24 27 30 31 31 31 31 29 31 32 34 35 33 34 31 29 28 27 25 24 25 24 23 18 13 11 10 11 7 4 4 2 4 9 13 15 11 13 16 13 15
21 24 27 30 31 31 28 27 29 31 33 35 34 33 31 31 30 29 28 25 24 22 22 21 21 19 13 11 8 9 9 5 3 3 2 4 8 11 14 12 11 14 14
26 28 30 31 27 25 28 30 32 34 35 35 33 31 31 30 30 28 27 25 23 21 19 18 19 17 15 14 12 10 7 8 7 4 2 1 4 6 9 13 14 13 13
31 32 29 23 25 28 30 31 32 34 35 35 34 32 30 29 28 27 26 24 23 21 19 17 18 16 13 14 14 17 12 7 7 9 6 4 1 3 6 7 10 14 14